Time,TemperatureF,DewpointF,PressureIn,WindDirection,WindDirectionDegrees,WindSpeedMPH,WindSpeedGustMPH,Humidity,HourlyPrecipIn,Conditions,Clouds,dailyrainin,SolarRadiationWatts/m^2,SoftwareType,DateUTC
2013-03-09 10:25:00,35.3,17.7,29.78,WNW,301,10.0,-999.0,51,-99.99,,,0.07,0.0,cwc,2013-03-09 17:25:00,
2013-03-09 10:30:00,35.2,18.3,29.78,NW,311,10.0,-999.0,53,-99.99,,,0.07,0.0,cwc,2013-03-09 17:30:00,
2013-03-09 10:35:00,36.6,20.4,29.79,WNW,292,6.0,-999.0,55,-99.99,,,0.08,0.0,cwc,2013-03-09 17:35:00,
2013-03-09 10:40:00,36.5,18.5,29.79,WNW,294,7.0,-999.0,50,-99.99,,,0.08,0.0,cwc,2013-03-09 17:40:00,
2013-03-09 10:45:00,36.9,19.6,29.79,West,278,2.0,-999.0,52,-99.99,,,0.08,0.0,cwc,2013-03-09 17:45:00,
2013-03-09 10:50:00,36.5,19.2,29.77,NW,326,8.0,-999.0,52,-99.99,,,0.08,0.0,cwc,2013-03-09 17:50:00,
2013-03-09 10:55:00,36.0,18.7,29.77,West,267,9.0,-999.0,52,-99.99,,,0.08,0.0,cwc,2013-03-09 17:55:00,
2013-03-09 11:00:00,36.0,18.4,29.77,WNW,299,9.0,-999.0,51,-99.99,,,0.08,0.0,cwc,2013-03-09 18:00:00,
2013-03-09 11:05:00,36.8,18.4,29.77,WSW,247,9.0,-999.0,49,-99.99,,,0.08,0.0,cwc,2013-03-09 18:05:00,
2013-03-09 11:10:00,37.0,18.3,29.77,West,277,7.0,-999.0,48,-99.99,,,0.08,0.0,cwc,2013-03-09 18:10:00,
2013-03-09 11:15:00,37.5,19.1,29.77,WNW,291,13.0,-999.0,49,-99.99,,,0.09,0.0,cwc,2013-03-09 18:15:00,
2013-03-09 11:20:00,37.6,18.2,29.75,West,264,10.0,-999.0,46,-99.99,,,0.09,0.0,cwc,2013-03-09 18:20:00,
2013-03-09 11:25:00,38.2,20.6,29.75,WNW,295,7.0,-999.0,51,-99.99,,,0.09,0.0,cwc,2013-03-09 18:25:00,
2013-03-09 11:30:00,39.2,21.6,29.75,WNW,295,13.0,-999.0,51,-99.99,,,0.09,0.0,cwc,2013-03-09 18:30:00,
2013-03-09 11:35:00,38.3,19.2,29.75,WSW,243,13.0,-999.0,47,-99.99,,,0.10,0.0,cwc,2013-03-09 18:35:00,
2013-03-09 11:40:00,37.6,19.2,29.75,WNW,284,8.0,-999.0,49,-99.99,,,0.10,0.0,cwc,2013-03-09 18:40:00,
2013-03-09 11:45:00,37.6,20.3,29.75,WNW,296,10.0,-999.0,52,-99.99,,,0.10,0.0,cwc,2013-03-09 18:45:00,
2013-03-09 11:50:00,37.2,19.2,29.75,WNW,285,14.0,-999.0,50,-99.99,,,0.10,0.0,cwc,2013-03-09 18:50:00,
2013-03-09 11:55:00,36.8,19.2,29.75,WNW,298,7.0,-999.0,51,-99.99,,,0.10,0.0,cwc,2013-03-09 18:55:00,
2013-03-09 12:00:00,36.9,20.0,29.75,NW,318,9.0,-999.0,53,-99.99,,,0.10,0.0,cwc,2013-03-09 19:00:00,
2013-03-09 12:05:00,36.6,18.2,29.76,WNW,295,4.0,-999.0,49,-99.99,,,0.10,0.0,cwc,2013-03-09 19:05:00,
2013-03-09 12:10:00,36.3,18.3,29.76,NW,311,2.0,-999.0,50,-99.99,,,0.10,0.0,cwc,2013-03-09 19:10:00,
2013-03-09 12:15:00,36.3,18.7,29.76,WNW,301,14.0,-999.0,51,-99.99,,,0.10,0.0,cwc,2013-03-09 19:15:00,
2013-03-09 12:20:00,36.5,18.9,29.77,NW,304,9.0,-999.0,51,-99.99,,,0.10,0.0,cwc,2013-03-09 19:20:00,
2013-03-09 12:25:00,36.8,19.2,29.77,NW,319,10.0,-999.0,51,-99.99,,,0.10,0.0,cwc,2013-03-09 19:25:00,
2013-03-09 12:30:00,36.5,18.9,29.77,WNW,295,10.0,-999.0,51,-99.99,,,0.11,0.0,cwc,2013-03-09 19:30:00,
2013-03-09 12:35:00,36.3,19.0,29.74,WNW,289,7.0,-999.0,52,-99.99,,,0.11,0.0,cwc,2013-03-09 19:35:00,
2013-03-09 12:40:00,36.3,20.1,29.74,NW,309,10.0,-999.0,55,-99.99,,,0.11,0.0,cwc,2013-03-09 19:40:00,
2013-03-09 12:45:00,36.8,19.5,29.74,NW,326,18.0,-999.0,52,-99.99,,,0.11,0.0,cwc,2013-03-09 19:45:00,
2013-03-09 12:50:00,36.9,18.9,29.74,WNW,299,6.0,-999.0,50,-99.99,,,0.11,0.0,cwc,2013-03-09 19:50:00,
2013-03-09 12:55:00,36.3,17.6,29.74,NW,316,10.0,-999.0,48,-99.99,,,0.11,0.0,cwc,2013-03-09 19:55:00,
2013-03-09 13:00:00,36.5,18.5,29.74,WNW,289,10.0,-999.0,50,-99.99,,,0.11,0.0,cwc,2013-03-09 20:00:00,
2013-03-09 13:05:00,36.8,18.8,29.74,NW,322,7.0,-999.0,50,-99.99,,,0.11,0.0,cwc,2013-03-09 20:05:00,
2013-03-09 13:10:00,37.0,18.3,29.74,WNW,301,6.0,-999.0,48,-99.99,,,0.11,0.0,cwc,2013-03-09 20:10:00,
2013-03-09 13:15:00,37.5,19.1,29.74,WNW,302,6.0,-999.0,49,-99.99,,,0.11,0.0,cwc,2013-03-09 20:15:00,
2013-03-09 13:20:00,37.3,18.9,29.74,NW,323,13.0,-999.0,49,-99.99,,,0.11,0.0,cwc,2013-03-09 20:20:00,
2013-03-09 13:25:00,37.5,19.5,29.74,WNW,298,7.0,-999.0,50,-99.99,,,0.11,0.0,cwc,2013-03-09 20:25:00,
2013-03-09 13:30:00,37.2,18.8,29.74,NW,325,14.0,-999.0,49,-99.99,,,0.11,0.0,cwc,2013-03-09 20:30:00,
2013-03-09 13:35:00,36.9,18.9,29.74,West,264,10.0,-999.0,50,-99.99,,,0.12,0.0,cwc,2013-03-09 20:35:00,
2013-03-09 13:40:00,36.8,19.2,29.74,WNW,299,7.0,-999.0,51,-99.99,,,0.12,0.0,cwc,2013-03-09 20:40:00,
2013-03-09 13:45:00,37.2,18.5,29.74,West,280,10.0,-999.0,48,-99.99,,,0.12,0.0,cwc,2013-03-09 20:45:00,
2013-03-09 13:50:00,37.0,19.7,29.74,NW,306,10.0,-999.0,52,-99.99,,,0.12,0.0,cwc,2013-03-09 20:50:00,
2013-03-09 13:55:00,36.8,18.8,29.74,WNW,287,6.0,-999.0,50,-99.99,,,0.12,0.0,cwc,2013-03-09 20:55:00,
2013-03-09 14:00:00,37.0,19.4,29.74,WNW,289,10.0,-999.0,51,-99.99,,,0.12,0.0,cwc,2013-03-09 21:00:00,
2013-03-09 14:05:00,36.9,19.3,29.75,NW,311,10.0,-999.0,51,-99.99,,,0.12,0.0,cwc,2013-03-09 21:05:00,
2013-03-09 14:10:00,37.0,19.0,29.75,SW,217,10.0,-999.0,50,-99.99,,,0.12,0.0,cwc,2013-03-09 21:10:00,
2013-03-09 14:15:00,37.0,19.7,29.75,NNW,333,0.0,-999.0,52,-99.99,,,0.12,0.0,cwc,2013-03-09 21:15:00,
2013-03-09 14:20:00,36.9,19.3,29.76,NNW,328,10.0,-999.0,51,-99.99,,,0.12,0.0,cwc,2013-03-09 21:20:00,
2013-03-09 14:25:00,36.9,18.5,29.76,WNW,298,7.0,-999.0,49,-99.99,,,0.12,0.0,cwc,2013-03-09 21:25:00,
2013-03-09 14:30:00,36.8,19.2,29.76,NW,311,4.0,-999.0,51,-99.99,,,0.12,0.0,cwc,2013-03-09 21:30:00,
2013-03-09 14:35:00,37.0,19.4,29.78,West,271,4.0,-999.0,51,-99.99,,,0.12,0.0,cwc,2013-03-09 21:35:00,
2013-03-09 14:40:00,36.8,18.4,29.78,West,274,6.0,-999.0,49,-99.99,,,0.12,0.0,cwc,2013-03-09 21:40:00,
2013-03-09 14:45:00,36.6,18.2,29.78,NW,309,11.0,-999.0,49,-99.99,,,0.12,0.0,cwc,2013-03-09 21:45:00,
2013-03-09 14:50:00,37.0,19.7,29.78,NW,325,6.0,-999.0,52,-99.99,,,0.12,0.0,cwc,2013-03-09 21:50:00,
2013-03-09 14:55:00,37.2,20.3,29.78,WSW,243,6.0,-999.0,53,-99.99,,,0.12,0.0,cwc,2013-03-09 21:55:00,
2013-03-09 15:00:00,37.8,19.8,29.78,SSW,210,2.0,-999.0,50,-99.99,,,0.12,0.0,cwc,2013-03-09 22:00:00,
2013-03-09 15:05:00,38.0,19.6,29.76,West,260,6.0,-999.0,49,-99.99,,,0.12,0.0,cwc,2013-03-09 22:05:00,
2013-03-09 15:10:00,37.8,19.1,29.76,West,275,9.0,-999.0,48,-99.99,,,0.12,0.0,cwc,2013-03-09 22:10:00,
2013-03-09 15:15:00,37.8,20.2,29.76,WNW,284,6.0,-999.0,51,-99.99,,,0.12,0.0,cwc,2013-03-09 22:15:00,
2013-03-09 15:20:00,37.6,20.3,29.78,SSW,210,7.0,-999.0,52,-99.99,,,0.13,0.0,cwc,2013-03-09 22:20:00,
2013-03-09 15:25:00,37.6,21.0,29.78,WSW,246,10.0,-999.0,54,-99.99,,,0.13,0.0,cwc,2013-03-09 22:25:00,
2013-03-09 15:30:00,38.0,24.0,29.78,WSW,247,6.0,-999.0,61,-99.99,,,0.13,0.0,cwc,2013-03-09 22:30:00,
2013-03-09 15:35:00,37.8,22.3,29.78,WSW,239,6.0,-999.0,57,-99.99,,,0.13,0.0,cwc,2013-03-09 22:35:00,
2013-03-09 15:40:00,37.3,21.1,29.78,NW,309,4.0,-999.0,55,-99.99,,,0.13,0.0,cwc,2013-03-09 22:40:00,
2013-03-09 15:45:00,37.9,22.8,29.78,South,182,8.0,-999.0,58,-99.99,,,0.13,0.0,cwc,2013-03-09 22:45:00,
2013-03-09 15:50:00,36.9,20.0,29.78,WSW,247,18.0,-999.0,53,-99.99,,,0.13,0.0,cwc,2013-03-09 22:50:00,
2013-03-09 15:55:00,37.0,20.1,29.78,SW,234,13.0,-999.0,53,-99.99,,,0.13,0.0,cwc,2013-03-09 22:55:00,
2013-03-09 16:00:00,37.0,19.7,29.78,West,275,6.0,-999.0,52,-99.99,,,0.13,0.0,cwc,2013-03-09 23:00:00,
2013-03-09 16:05:00,36.9,20.7,29.79,WSW,254,8.0,-999.0,55,-99.99,,,0.13,0.0,cwc,2013-03-09 23:05:00,
2013-03-09 16:10:00,37.0,20.4,29.79,West,277,6.0,-999.0,54,-99.99,,,0.13,0.0,cwc,2013-03-09 23:10:00,
2013-03-09 16:15:00,37.5,21.3,29.79,West,275,8.0,-999.0,55,-99.99,,,0.13,0.0,cwc,2013-03-09 23:15:00,
2013-03-09 16:20:00,37.6,21.8,29.81,WSW,243,6.0,-999.0,56,-99.99,,,0.13,0.0,cwc,2013-03-09 23:20:00,
2013-03-09 16:25:00,37.3,20.4,29.81,SW,220,2.0,-999.0,53,-99.99,,,0.13,0.0,cwc,2013-03-09 23:25:00,
2013-03-09 16:30:00,37.5,20.6,29.81,SW,222,13.0,-999.0,53,-99.99,,,0.13,0.0,cwc,2013-03-09 23:30:00,
2013-03-09 16:35:00,37.2,20.3,29.81,West,267,2.0,-999.0,53,-99.99,,,0.13,0.0,cwc,2013-03-09 23:35:00,
2013-03-09 16:40:00,37.3,20.7,29.81,NW,309,8.0,-999.0,54,-99.99,,,0.13,0.0,cwc,2013-03-09 23:40:00,
2013-03-09 16:45:00,37.6,21.4,29.81,WNW,296,2.0,-999.0,55,-99.99,,,0.13,0.0,cwc,2013-03-09 23:45:00,
2013-03-09 16:50:00,37.9,22.1,29.81,SW,233,0.0,-999.0,56,-99.99,,,0.13,0.0,cwc,2013-03-09 23:50:00,
2013-03-09 16:55:00,37.5,20.6,29.81,WNW,298,2.0,-999.0,53,-99.99,,,0.13,0.0,cwc,2013-03-09 23:55:00,
2013-03-09 17:00:00,37.3,20.4,29.81,NW,306,4.0,-999.0,53,-99.99,,,0.13,0.0,cwc,2013-03-10 00:00:00,
2013-03-09 17:05:00,37.2,20.3,29.83,West,261,6.0,-999.0,53,-99.99,,,0.13,0.0,cwc,2013-03-10 00:05:00,
2013-03-09 17:10:00,37.5,20.9,29.83,West,270,4.0,-999.0,54,-99.99,,,0.13,0.0,cwc,2013-03-10 00:10:00,
2013-03-09 17:15:00,37.2,20.3,29.83,WNW,298,4.0,-999.0,53,-99.99,,,0.13,0.0,cwc,2013-03-10 00:15:00,
2013-03-09 17:20:00,37.2,19.9,29.84,WNW,298,6.0,-999.0,52,-99.99,,,0.13,0.0,cwc,2013-03-10 00:20:00,
2013-03-09 17:25:00,37.2,19.9,29.84,WNW,287,6.0,-999.0,52,-99.99,,,0.13,0.0,cwc,2013-03-10 00:25:00,
2013-03-09 17:30:00,37.3,20.4,29.84,SW,234,4.0,-999.0,53,-99.99,,,0.13,0.0,cwc,2013-03-10 00:30:00,
2013-03-09 17:35:00,37.0,20.4,29.84,WNW,302,6.0,-999.0,54,-99.99,,,0.13,0.0,cwc,2013-03-10 00:35:00,
2013-03-09 17:40:00,37.0,19.7,29.84,WNW,294,2.0,-999.0,52,-99.99,,,0.13,0.0,cwc,2013-03-10 00:40:00,
2013-03-09 17:45:00,36.9,20.3,29.84,SW,234,4.0,-999.0,54,-99.99,,,0.13,0.0,cwc,2013-03-10 00:45:00,
2013-03-09 17:50:00,37.2,20.3,29.85,SW,232,7.0,-999.0,53,-99.99,,,0.13,0.0,cwc,2013-03-10 00:50:00,
2013-03-09 17:55:00,36.6,19.7,29.85,WSW,237,9.0,-999.0,53,-99.99,,,0.13,0.0,cwc,2013-03-10 00:55:00,
2013-03-09 18:00:00,36.6,19.3,29.85,WSW,256,6.0,-999.0,52,-99.99,,,0.13,0.0,cwc,2013-03-10 01:00:00,
2013-03-09 18:05:00,36.6,20.0,29.86,SW,220,6.0,-999.0,54,-99.99,,,0.13,0.0,cwc,2013-03-10 01:05:00,
2013-03-09 18:10:00,36.6,20.0,29.86,SW,232,10.0,-999.0,54,-99.99,,,0.13,0.0,cwc,2013-03-10 01:10:00,
2013-03-09 18:15:00,36.3,20.5,29.86,WSW,237,8.0,-999.0,56,-99.99,,,0.13,0.0,cwc,2013-03-10 01:15:00,
2013-03-09 18:20:00,36.3,20.8,29.87,WSW,250,6.0,-999.0,57,-99.99,,,0.13,0.0,cwc,2013-03-10 01:20:00,
2013-03-09 18:25:00,36.2,20.4,29.87,SW,233,10.0,-999.0,56,-99.99,,,0.13,0.0,cwc,2013-03-10 01:25:00,
2013-03-09 18:30:00,36.0,19.8,29.87,SSW,213,11.0,-999.0,55,-99.99,,,0.13,0.0,cwc,2013-03-10 01:30:00,
2013-03-09 18:35:00,36.0,20.9,29.88,SW,226,8.0,-999.0,58,-99.99,,,0.13,0.0,cwc,2013-03-10 01:35:00,
2013-03-09 18:40:00,36.2,21.4,29.88,SW,227,13.0,-999.0,59,-99.99,,,0.13,0.0,cwc,2013-03-10 01:40:00,
2013-03-09 18:45:00,36.0,20.5,29.88,West,272,4.0,-999.0,57,-99.99,,,0.13,0.0,cwc,2013-03-10 01:45:00,
2013-03-09 18:50:00,36.0,20.2,29.89,SW,224,2.0,-999.0,56,-99.99,,,0.13,0.0,cwc,2013-03-10 01:50:00,
2013-03-09 18:55:00,36.2,22.5,29.89,West,264,6.0,-999.0,62,-99.99,,,0.13,0.0,cwc,2013-03-10 01:55:00,
2013-03-09 19:00:00,37.0,23.7,29.89,SW,223,6.0,-999.0,63,-99.99,,,0.13,0.0,cwc,2013-03-10 02:00:00,
2013-03-09 19:05:00,36.2,21.8,29.89,SW,229,2.0,-999.0,60,-99.99,,,0.13,0.0,cwc,2013-03-10 02:05:00,
2013-03-09 19:10:00,36.0,22.0,29.89,SW,229,2.0,-999.0,61,-99.99,,,0.13,0.0,cwc,2013-03-10 02:10:00,
2013-03-09 19:15:00,36.0,22.0,29.89,SW,233,4.0,-999.0,61,-99.99,,,0.13,0.0,cwc,2013-03-10 02:15:00,
2013-03-09 19:20:00,36.5,22.5,29.90,SW,233,0.0,-999.0,61,-99.99,,,0.13,0.0,cwc,2013-03-10 02:20:00,
2013-03-09 19:25:00,35.9,21.1,29.90,SW,217,8.0,-999.0,59,-99.99,,,0.13,0.0,cwc,2013-03-10 02:25:00,
2013-03-09 19:30:00,35.9,20.8,29.90,WNW,284,2.0,-999.0,58,-99.99,,,0.13,0.0,cwc,2013-03-10 02:30:00,
2013-03-09 19:35:00,35.9,22.9,29.91,SW,236,6.0,-999.0,64,-99.99,,,0.13,0.0,cwc,2013-03-10 02:35:00,
2013-03-09 19:40:00,35.8,22.8,29.91,SW,229,7.0,-999.0,64,-99.99,,,0.13,0.0,cwc,2013-03-10 02:40:00,
2013-03-09 19:45:00,35.8,23.9,29.91,SW,216,4.0,-999.0,67,-99.99,,,0.13,0.0,cwc,2013-03-10 02:45:00,
2013-03-09 19:50:00,35.5,22.5,29.91,SW,219,8.0,-999.0,64,-99.99,,,0.13,0.0,cwc,2013-03-10 02:50:00,
2013-03-09 19:55:00,35.5,24.7,29.91,South,189,6.0,-999.0,70,-99.99,,,0.13,0.0,cwc,2013-03-10 02:55:00,
2013-03-09 20:00:00,34.9,22.7,29.91,SW,234,6.0,-999.0,66,-99.99,,,0.13,0.0,cwc,2013-03-10 03:00:00,
2013-03-09 20:05:00,35.6,16.9,29.92,WSW,237,8.0,-999.0,48,-99.99,,,0.13,0.0,cwc,2013-03-10 03:05:00,
2013-03-09 20:10:00,35.2,24.8,29.92,SW,226,6.0,-999.0,71,-99.99,,,0.13,0.0,cwc,2013-03-10 03:10:00,
2013-03-09 20:15:00,36.0,24.8,29.92,SW,226,0.0,-999.0,69,-99.99,,,0.13,0.0,cwc,2013-03-10 03:15:00,
2013-03-09 20:20:00,35.8,30.8,29.88,SW,226,0.0,-999.0,86,-99.99,,,0.13,0.0,cwc,2013-03-10 03:20:00,
2013-03-09 20:25:00,37.0,33.8,29.88,SW,226,0.0,-999.0,91,-99.99,,,0.13,0.0,cwc,2013-03-10 03:25:00,
2013-03-09 20:30:00,35.2,32.3,29.88,SW,226,0.0,-999.0,92,-99.99,,,0.13,0.0,cwc,2013-03-10 03:30:00,
2013-03-09 20:35:00,34.6,30.6,29.92,SSE,148,0.0,-999.0,89,-99.99,,,0.13,0.0,cwc,2013-03-10 03:35:00,
2013-03-09 20:40:00,34.0,30.0,29.92,SE,124,6.0,-999.0,89,-99.99,,,0.13,0.0,cwc,2013-03-10 03:40:00,
2013-03-09 20:45:00,33.8,30.2,29.92,ESE,121,4.0,-999.0,90,-99.99,,,0.13,0.0,cwc,2013-03-10 03:45:00,
2013-03-09 20:50:00,34.0,30.4,29.93,ESE,121,0.0,-999.0,90,-99.99,,,0.13,0.0,cwc,2013-03-10 03:50:00,
2013-03-09 21:00:00,33.5,31.0,29.93,ESE,121,0.0,-999.0,93,-99.99,,,0.13,0.0,cwc,2013-03-10 04:00:00,
2013-03-09 21:05:00,33.2,30.7,29.93,ESE,121,0.0,-999.0,93,-99.99,,,0.13,0.0,cwc,2013-03-10 04:05:00,
2013-03-09 21:10:00,32.9,32.9,29.93,ESE,121,6.0,-999.0,100,-99.99,,,0.13,0.0,cwc,2013-03-10 04:10:00,
2013-03-09 21:15:00,33.2,33.2,29.93,ESE,121,0.0,-999.0,100,-99.99,,,0.13,0.0,cwc,2013-03-10 04:15:00,
2013-03-09 21:25:00,32.8,32.8,29.94,ESE,121,0.0,-999.0,100,-99.99,,,0.13,0.0,cwc,2013-03-10 04:25:00,
2013-03-09 21:35:00,37.9,1.9,29.94,ESE,121,0.0,-999.0,0,-99.99,,,0.13,0.0,cwc,2013-03-10 04:35:00,
2013-03-09 21:40:00,34.6,-1.4,29.94,ESE,121,0.0,-999.0,0,-99.99,,,0.13,0.0,cwc,2013-03-10 04:40:00,
2013-03-09 21:45:00,32.9,30.0,29.94,ESE,121,0.0,-999.0,92,-99.99,,,0.13,0.0,cwc,2013-03-10 04:45:00,
2013-03-09 21:50:00,32.2,31.8,29.95,ESE,121,0.0,-999.0,99,-99.99,,,0.13,0.0,cwc,2013-03-10 04:50:00,
2013-03-09 21:55:00,32.2,31.8,29.95,ESE,121,2.0,-999.0,99,-99.99,,,0.13,0.0,cwc,2013-03-10 04:55:00,
2013-03-09 22:00:00,32.1,32.1,29.95,ESE,121,6.0,-999.0,100,-99.99,,,0.13,0.0,cwc,2013-03-10 05:00:00,
2013-03-09 22:05:00,32.4,32.4,29.97,ESE,121,0.0,-999.0,100,-99.99,,,0.13,0.0,cwc,2013-03-10 05:05:00,
2013-03-09 22:10:00,33.8,33.8,29.97,ESE,121,0.0,-999.0,100,-99.99,,,0.13,0.0,cwc,2013-03-10 05:10:00,
2013-03-09 22:15:00,33.4,33.4,29.97,ESE,121,0.0,-999.0,100,-99.99,,,0.13,0.0,cwc,2013-03-10 05:15:00,
2013-03-09 22:20:00,32.8,32.8,29.95,ESE,121,0.0,-999.0,100,-99.99,,,0.13,0.0,cwc,2013-03-10 05:20:00,
2013-03-09 22:25:00,32.7,32.7,29.95,ESE,121,0.0,-999.0,100,-99.99,,,0.13,0.0,cwc,2013-03-10 05:25:00,
2013-03-09 22:30:00,32.7,32.7,29.95,ESE,121,0.0,-999.0,100,-99.99,,,0.13,0.0,cwc,2013-03-10 05:30:00,
2013-03-09 22:35:00,32.5,32.5,29.95,ESE,121,0.0,-999.0,100,-99.99,,,0.13,0.0,cwc,2013-03-10 05:35:00,
2013-03-09 22:40:00,32.5,32.5,29.95,ESE,121,0.0,-999.0,100,-99.99,,,0.13,0.0,cwc,2013-03-10 05:40:00,
2013-03-09 22:45:00,33.5,33.5,29.95,ESE,121,0.0,-999.0,100,-99.99,,,0.13,0.0,cwc,2013-03-10 05:45:00,
2013-03-09 22:50:00,32.8,32.8,29.96,ESE,121,0.0,-999.0,100,-99.99,,,0.13,0.0,cwc,2013-03-10 05:50:00,
2013-03-09 22:55:00,32.8,32.8,29.96,ESE,121,0.0,-999.0,100,-99.99,,,0.13,0.0,cwc,2013-03-10 05:55:00,
2013-03-09 23:00:00,33.2,32.5,29.96,ESE,121,1.0,-999.0,98,-99.99,,,0.13,0.0,cwc,2013-03-10 06:00:00,
2013-03-09 23:05:00,33.8,33.8,29.95,ESE,121,0.0,-999.0,100,-99.99,,,0.13,0.0,cwc,2013-03-10 06:05:00,
2013-03-09 23:10:00,34.7,34.7,29.95,ESE,121,0.0,-999.0,100,-99.99,,,0.13,0.0,cwc,2013-03-10 06:10:00,
2013-03-09 23:15:00,38.8,38.8,29.95,ESE,121,0.0,-999.0,100,-99.99,,,0.13,0.0,cwc,2013-03-10 06:15:00,
2013-03-09 23:20:00,39.1,3.1,29.92,ESE,121,0.0,-999.0,0,-99.99,,,0.13,0.0,cwc,2013-03-10 06:20:00,
2013-03-09 23:25:00,36.3,0.3,29.92,ESE,121,0.0,-999.0,0,-99.99,,,0.13,0.0,cwc,2013-03-10 06:25:00,
2013-03-09 23:30:00,35.2,-0.8,29.92,ESE,121,0.0,-999.0,0,-99.99,,,0.13,0.0,cwc,2013-03-10 06:30:00,
2013-03-09 23:35:00,35.2,-0.8,29.97,ESE,121,0.0,-999.0,0,-99.99,,,0.13,0.0,cwc,2013-03-10 06:35:00,
2013-03-09 23:40:00,34.6,4.7,29.97,ESE,121,0.0,-999.0,17,-99.99,,,0.13,0.0,cwc,2013-03-10 06:40:00,
2013-03-09 23:45:00,40.2,10.7,29.97,ESE,121,0.0,-999.0,18,-99.99,,,0.13,0.0,cwc,2013-03-10 06:45:00,
2013-03-09 23:50:00,36.9,20.0,29.93,ESE,121,0.0,-999.0,53,-99.99,,,0.13,0.0,cwc,2013-03-10 06:50:00,
2013-03-09 23:55:00,36.0,13.3,29.93,ESE,121,0.0,-999.0,37,-99.99,,,0.13,0.0,cwc,2013-03-10 06:55:00,